FENGYUN 1C DEB, 30356

Orbit data source: Space-Track

FENGYUN 1C DEB, 30356 is space debris in SSO originally from a launch on Mon, 10 May 1999 UTC launched from the Taiyaun Space Center, China (TSC). Fengyun 1C debris stems from the Chinese weather satellite Fengyun-1C, which was intentionally destroyed by a Chinese anti-satellite missile in 2007. This event dramatically increased the amount of space debris, with thousands of trackable fragments posing hazards to satellites and human spaceflight. The Fengyun 1C debris cloud has become a focal point in discussions about space sustainability and the need for international regulations to prevent the creation of new debris.

Loading next visibility...
Identifier
30356, 1999-025ABT
Orbit
SSO
Country
Flag of CNCN / PRC
Related business
Manufacturer
Unknown
Mission
Spacecraft
Bus & Motor
Unknown
Mass
Unknown
Launch date (UTC)
1999-05-10 (27 years ago)
Launch vehicle
Unknown
Launch site
Taiyaun Space Center, China (TSC)
Object type
Payload
Rocket body
Debris
Shape & HBR
Unknown shape, 0.1 m
Radar Cross Section
Small (<0.1 m²)

Expand to show TLE details & history
Last TLE update: 9 hours ago

TLE from 9 hours ago
0 FENGYUN 1C DEB
1 30356U 99025ABT 26071.53222281  .00001660  00000-0  89567-3 0  9994
2 30356  98.6879  69.1122 0053181  33.9609  90.7656 14.13303230982894
Epoch: 2026-03-12T12:46Z
TLE epoch observation values (Epoch: 2026-03-12T12:46:24.050Z)
Latitude
53.84766°
Longitude
-100.66102°
Altitude
857.616 km
Speed
7.429 km/s
True Right ascension
17h 24m 28s
True Declination
53° 41' 09"
Sunlit
Object was in daylight at epoch
Visualization orbit readout
Latitude
Unknown
Longitude
Unknown
Altitude
Unknown
Speed
Unknown
Apparent Right ascension
Unknown
Apparent Declination
Unknown
Sunlit
N/A
Visualization observer readout
Local Sidereal Time
02:24:52
Azimuth
Unknown
Elevation
Unknown
Doppler factor
Unknown
Orbital elements
Apogee altitude
883.671 km
Perigee altitude
806.842 km
Semi-major axis
7,223.394 km
Eccentricity
0.00532
Inclination
98.6879°
RAAN
69.1122°
Arg. of periapsis
33.9609°
True anomaly
91.37489°
Mean anomaly
90.7656°
Eccentric anomaly
91.07025°
Mean motion
3.53534 °/min
Orbital period
101.83 mins
BSTAR
0.00089567
Loading maneuver chart data...
Computing Atmospheric mass density...

Documentation

Showing up to 5 results
|